Weather in Ramon'e

Russia / Voronezh Oblast     51°24′17″N   41°06′21″E
temp.,
°C
wind,
m/s
gust,
m/s
humid.,
%
clouds,
%
prec.,
mm/h
press.,
hPa
HPBL,
m
15 may, sat
sat1500:00+17sse4784100 0.0 1012106
03:00+16s4891100 0.0 1012147
06:00+17sse3693100 0.0 1012156
09:00+20ssw71187100 1.2 1014739
12:00+20s138197 1.5 1014300
15:00+25s45575 1.8 10131475
18:00+23ssw24685 0.9 1013116
21:00+17wnw34839 1.2 101451
16 may, sun
sun1600:00+16nnw22826 0.2 101411
03:00+15ne228499 0.3 101516
06:00+16ene24854 0.0 101593
09:00+21e346714 0.0 1015432
12:00+24ene3360100 0.0 10141082
15:00+25se446081 0.5 10131204
18:00+24ese356597 0.2 1013162
21:00+19ese3365100 0.2 101329
17 may, mon
mon1700:00+17e456897 0.0 101365
03:00+16e4966100 0.0 1012143
06:00+16ese4874100 0.0 1013129
09:00+22se5105640 0.0 1013338
12:00+25se71146100 0.0 1013895
15:00+26ese71253100 0.0 10111194
18:00+24ese61361100 0.0 1011399
21:00+20ese6176026 0.0 1011328
18 may, tue
tue1800:00+19ese718535 0.0 1010379
03:00+16ese5125968 0.0 1010211
06:00+15ese5126751 0.0 1010193
09:00+21se6105334 0.0 1010442
12:00+25se7945100 0.0 1009854
15:00+23sse51060100 0.0 1008415
18:00+23sse486297 0.0 1008268
21:00+17ssw368479 0.0 100991
19 may, wed
wed1900:00+17s3681100 0.0 1010156
03:00+15sse3685100 0.0 1010143
06:00+15s4887100 0.0 1010264
09:00+18ssw577687 0.1 1011736
12:00+20ssw676622 0.3 10111232
15:00+22sw5754100 1.1 10111931
18:00+19sw3667100 0.1 1012769
21:00+16ssw2270100 0.1 101229